Dewpoint
30 31 37 37 45 46 48 48 47 47 48 48 48 49 49 51 52 53 53 53 53 53 53 53 53 53 53 53 53 52 50 51 57 58 58 60 61 62 64 64 64 63 58
30 30 31 33 42 45 46 46 47 47 48 49 51 51 52 52 52 53 53 53 53 53 53 52 52 52 52 52 52 53 52 51 53 54 54 53 53 57 62 63 63 63 62
34 32 30 32 35 42 44 45 46 47 48 50 52 52 52 52 52 52 53 53 53 53 53 53 53 53 53 53 52 53 53 52 52 53 53 50 50 52 56 60 62 62 62
33 34 32 31 32 39 41 43 45 47 49 51 51 50 50 49 51 51 52 52 53 52 53 53 53 53 54 53 54 53 53 53 52 54 54 54 53 51 50 55 58 60 60
35 35 35 35 35 40 42 43 45 47 49 50 51 51 50 50 51 51 51 52 52 52 52 53 53 53 54 55 54 54 53 53 52 52 52 53 53 54 53 50 51 54 59
37 38 38 39 40 41 44 45 46 47 48 48 49 50 50 50 49 49 50 51 51 51 52 52 53 54 54 54 55 55 55 54 54 54 53 53 53 52 52 51 51 51 53
29 33 37 41 42 42 43 44 45 46 46 47 48 49 49 49 49 49 49 49 50 50 50 50 51 51 52 53 53 53 54 55 55 54 54 54 53 53 54 54 53 52 52
26 26 27 31 36 39 41 43 44 45 46 46 47 48 48 48 48 48 49 50 50 50 50 50 51 50 49 49 50 52 53 53 54 55 55 55 54 55 54 53 53 51 52
26 24 25 25 25 26 31 39 42 43 44 44 45 46 46 45 46 47 49 50 50 50 50 50 50 50 50 49 51 51 52 52 53 54 55 55 55 55 56 56 56 54 50
25 24 24 25 26 25 27 30 36 41 42 43 43 44 44 44 44 45 45 47 49 50 50 50 49 49 49 49 49 50 51 52 51 53 55 55 55 55 56 56 56 55 54
23 24 26 27 28 29 29 30 30 31 34 38 41 43 43 44 44 44 44 45 47 48 49 49 49 48 48 48 49 47 48 49 50 50 50 53 55 55 55 55 55 55 55
24 24 26 28 28 29 29 30 32 32 33 35 37 39 42 44 44 44 45 45 45 47 48 49 48 48 47 47 49 46 47 46 46 46 46 47 48 49 54 55 55 55 55
22 24 28 28 29 29 29 29 30 31 33 34 35 34 36 39 42 43 44 45 45 46 47 48 48 47 47 47 48 46 46 46 45 45 44 44 45 46 47 49 53 55 55
27 29 29 29 30 30 30 29 29 30 32 33 34 34 34 35 36 40 43 44 45 45 46 47 48 47 47 48 47 46 46 45 44 44 44 45 44 46 48 48 49 52 54
30 30 30 30 30 30 30 30 30 30 30 31 33 33 34 34 36 38 41 44 45 45 46 47 47 47 47 46 46 46 46 44 44 43 44 45 45 45 46 47 49 50 54
30 30 29 29 30 31 30 30 30 31 31 31 32 32 33 34 35 36 38 40 43 44 44 45 46 46 46 46 47 47 45 44 44 43 43 43 44 45 47 47 49 50 52
29 28 29 29 31 31 29 30 31 31 32 33 33 33 33 33 34 35 36 37 40 42 43 44 45 45 46 46 47 47 45 44 44 43 43 43 43 44 44 45 47 47 46
28 29 30 30 32 30 32 33 34 34 35 34 34 34 34 34 34 34 35 36 37 40 41 42 43 44 45 46 46 47 45 44 42 42 42 42 42 43 44 44 45 42 41
29 31 31 32 30 32 34 34 34 34 34 34 34 34 34 34 34 34 35 36 37 38 39 41 41 42 43 45 46 46 44 41 40 42 41 41 42 43 43 42 41 40 39
31 31 31 32 34 33 34 35 35 34 34 34 34 34 34 33 33 33 34 35 36 37 38 39 40 42 42 44 45 45 40 39 38 38 39 40 41 43 42 40 40 39 38
30 30 33 32 32 33 34 35 35 34 34 35 35 34 34 33 32 31 32 32 34 35 37 39 40 40 42 41 45 45 39 39 37 37 36 39 41 41 41 40 38 38 38
30 30 32 31 32 35 36 35 34 35 35 35 34 34 33 33 32 32 32 32 32 35 37 38 38 39 39 42 43 44 43 40 37 35 35 37 38 38 39 39 39 38 36
27 29 28 29 33 33 33 33 34 35 35 34 34 34 33 33 33 32 33 33 33 34 36 37 38 38 37 37 42 43 43 42 38 35 36 37 36 35 35 36 36 34 33
26 25 26 27 29 26 25 26 31 32 33 33 33 34 34 34 34 33 33 34 33 33 36 37 38 38 36 35 36 39 40 41 40 37 35 34 32 32 32 30 30 29 29
23 23 23 22 23 21 20 21 23 26 29 31 32 33 32 34 34 34 34 34 34 35 35 36 38 37 35 34 37 37 36 36 36 33 30 28 27 27 27 27 27 27 27
21 22 22 21 20 19 20 21 22 23 24 24 28 31 32 34 34 34 33 36 38 39 38 39 39 39 41 40 39 39 39 39 38 31 28 26 26 25 26 26 27 27 27
Lifted_Index
12 12 11 10 9 7 4 3 2 1 0 1 1 2 2 2 1 1 1 2 3 4 4 5 5 6 6 6 7 7 7 6 6 5 4 3 3 2 1 1 0 0 0
12 12 11 11 9 7 5 4 2 1 1 1 1 2 2 1 1 1 1 2 3 4 4 5 5 5 6 6 6 7 7 7 6 6 5 5 4 3 2 1 1 1 1
11 11 11 11 10 9 7 5 4 3 2 2 2 2 1 1 1 1 1 2 3 4 4 5 5 5 6 6 6 7 7 7 7 6 6 6 6 5 4 3 2 1 1
10 10 11 11 10 9 8 6 5 4 3 3 2 1 1 1 1 1 1 2 3 4 4 5 5 6 6 6 6 7 7 7 7 7 7 6 6 6 5 4 3 2 2
9 9 9 9 10 9 8 7 6 5 4 3 2 2 2 1 1 1 2 2 3 4 5 5 6 6 6 6 7 7 7 7 7 7 7 7 6 6 6 5 5 4 4
9 9 9 8 8 8 8 8 7 6 6 5 4 3 3 3 3 3 3 3 3 4 5 6 6 6 7 7 7 7 7 7 7 7 7 7 6 6 6 6 5 5 5
10 10 10 9 8 8 8 8 7 7 7 6 5 5 4 4 4 4 4 4 4 4 5 6 7 7 7 7 7 7 7 7 7 7 7 6 6 6 6 6 5 5 5
10 11 11 10 10 10 10 9 8 8 8 7 7 6 6 5 5 6 6 5 5 5 5 6 7 7 8 8 8 8 7 7 7 7 6 6 6 6 5 5 5 5 5
10 10 10 10 10 10 10 10 9 8 8 8 8 8 7 7 7 7 7 7 6 6 6 6 7 8 8 9 9 9 8 8 7 7 6 6 6 5 5 5 5 5 5
9 9 9 9 9 10 10 10 9 9 9 9 9 9 8 8 8 8 8 8 8 7 7 7 7 8 9 9 9 9 9 8 8 7 6 6 5 5 5 5 5 5 5
9 9 9 9 9 10 10 10 10 10 10 10 10 10 9 9 9 9 9 9 9 8 8 8 8 8 9 10 10 10 9 9 8 7 7 7 6 6 5 5 5 5 5
10 10 10 10 10 10 11 11 11 11 11 11 11 11 11 10 10 10 10 10 10 9 9 9 9 9 9 10 11 10 9 9 8 8 8 8 8 7 7 6 5 5 5
10 10 10 10 10 10 11 12 12 12 12 12 12 12 12 11 11 10 10 10 10 10 10 10 10 9 10 11 11 10 10 9 9 9 9 10 10 9 8 7 6 5 4
9 10 10 10 10 10 11 12 13 13 13 13 13 12 12 12 12 11 11 11 11 11 10 10 10 10 10 10 11 11 10 10 10 9 10 10 10 9 8 8 7 6 4
9 9 9 9 10 11 12 13 13 13 13 13 13 13 13 13 13 12 12 11 10 10 10 10 10 10 10 10 11 11 11 10 10 10 10 10 10 9 8 7 7 6 5
8 8 9 9 10 11 12 12 13 13 13 13 13 13 13 13 13 13 13 12 11 10 10 10 10 10 10 10 10 11 11 11 11 10 10 10 9 8 7 7 6 6 5
8 9 9 10 11 11 12 12 12 13 13 13 13 13 13 13 13 13 13 12 12 11 11 11 10 10 10 10 10 11 11 11 11 11 11 10 9 7 6 6 6 6 5
9 9 9 10 11 11 11 12 12 12 12 13 13 13 13 13 13 13 13 13 12 12 12 11 11 11 10 10 10 11 11 11 11 11 11 10 8 7 6 6 6 6 6
9 9 9 9 10 10 11 11 11 11 12 12 12 12 12 12 12 12 12 12 12 12 12 12 11 11 11 10 10 10 11 11 11 12 12 11 9 8 7 7 6 6 6
8 8 8 9 9 10 10 10 10 10 11 11 12 11 11 11 11 11 11 11 12 12 12 11 11 11 11 10 10 10 11 11 11 12 12 12 11 9 8 7 7 7 7
7 8 8 9 9 9 9 9 9 10 11 11 12 11 11 10 10 10 10 10 11 11 11 11 11 11 10 10 10 10 10 11 11 11 12 12 12 11 10 8 8 7 7
8 8 8 9 9 9 9 9 9 10 10 11 11 11 10 9 9 9 9 9 10 10 10 10 10 10 10 9 9 9 10 10 10 11 12 13 13 13 12 10 9 9 8
8 8 9 9 9 9 9 9 10 10 10 10 11 11 10 9 8 8 8 8 9 9 9 9 9 9 9 8 8 8 9 10 10 11 12 13 14 13 13 12 11 10 10
8 8 9 9 9 9 9 10 10 10 10 10 10 10 10 9 8 8 8 8 8 8 8 9 8 8 8 8 8 8 8 9 10 11 12 13 13 14 13 13 13 13 13
8 8 8 8 8 9 9 9 9 9 9 9 9 9 9 8 8 7 7 7 7 7 8 8 8 8 7 7 7 8 8 8 9 10 11 11 12 13 13 14 14 15 15
7 7 7 7 8 8 8 8 9 9 9 9 8 8 8 7 7 7 6 6 7 7 7 8 8 8 8 7 7 7 8 8 9 10 10 10 12 13 13 14 15 16 16